Location: Unspecified
(48.2082°N, 0.0000°E)
Time: 18:13:28
(UTC+00:00)

Altair - Pass Details

Date: 20 June 2019
Orbit: 1501 x 1683 km, 47.2° (Epoch: 15 July)

Event Time Altitude Azimuth Distance (km) Brightness Sun altitude
Rises 19:16:12 0° 209° (SSW) 4,686 10.0 5.8°
Reaches altitude 10° 19:19:30 10° 201° (SSW) 3,729 9.5 5.3°
Maximum altitude 19:27:51 37° 138° (SE) 2,305 8.1 4.1°
Drops below altitude 10° 19:36:30 10° 77° (ENE) 3,870 9.2 2.9°
Sets 19:39:59 0° 69° (ENE) 4,883 9.8 2.4°
